DECAYED

STARLINK-1741, 46567 (Decayed)

Orbit data source: Space-Track

STARLINK-1741, 46567 was a payload satellite owned by SpaceX/Seattle (US) in LEO that was launched on Tue, 06 Oct 2020 UTC via an FALCON 9 launch vehicle from the Air Force Eastern Test Range (AFETR). Payload-class satellites include a variety of spacecraft equipped with specific instruments for various scientific and technological missions. These include communications satellites like Starlink; space stations such as the ISS; scientific satellites like the Hubble; Earth observation satellites from companies like Planet Labs, Umbra, and HawkEye 360; GPS; miniature CubeSats for education and research; and military/defense satellites.

Not visible in the next 10 days
Identifier
46567, 2020-070AM
Orbit
Decayed
Country
Flag of USUS
Related business
Manufacturer
SpaceX/Seattle
Mission
Decayed Commercial Communications
Bus & Motor
STARLINK, Unknown motor
Mass
260 kg wet, ~248 kg dry
Launch date (UTC)
2020-10-06 (6 years ago)
Launch vehicle
FALCON 9
Launch site
Air Force Eastern Test Range (AFETR)
Object type
Payload
Rocket body
Debris
Shape & HBR
Box + 1 Pan, 10.1 m
Radar Cross Section
13.562 m², Large (>1 m²)

Expand to show TLE details & history
Last TLE update: 3 months ago

TLE from 3 months ago
0 STARLINK-1741
1 46567U 20070AM  26184.45793223  .07987208  12403-4  72477-3 0  9998
2 46567  53.0152 256.3391 0007819 319.9532  40.0936 16.38061958318643
Epoch: 2026-07-03T10:59Z
TLE epoch observation values (Epoch: 2026-07-03T10:59:25.344Z)
Latitude
-0.00003°
Longitude
169.99779°
Altitude
167.972 km
Speed
7.809 km/s
True Right ascension
17h 05m 21s
True Declination
0° 00' 00"
Sunlit
Object was in full shadow at epoch
Visualization orbit readout
Latitude
Unknown
Longitude
Unknown
Altitude
Unknown
Speed
Unknown
Apparent Right ascension
Unknown
Apparent Declination
Unknown
Sunlit
N/A
Visualization observer readout
Local Sidereal Time
01:26:45
Azimuth
Unknown
Elevation
Unknown
Doppler factor
Unknown
Orbital elements
Apogee altitude
176.376 km
Perigee altitude
166.135 km
Semi-major axis
6,549.392 km
Eccentricity
0.00078
Inclination
53.0152°
RAAN
256.3391°
Arg. of periapsis
319.9532°
True anomaly
40.15135°
Mean anomaly
40.0936°
Eccentric anomaly
40.12247°
Mean motion
4.09488 °/min
Orbital period
87.91 mins
BSTAR
0.00072477
Loading maneuver chart data...
Computing Atmospheric mass density...

Documentation

Showing up to 5 results
|